STARLINK-2655 (48449 NORAD) Tracking and Keplerian Element Data

This shows tracking and keplerian element data for the satellite.

Feedback or suggestion? Click here.




ElementValue
Catalog48449
NameSTARLINK-2655
Epoch Orbit367
Epoch Day214.91667824
Epoch Year2021
RAAN162.8392
Inclination53.0482
Eccentricity0.0001347
Argument of Perigee67.2491
Mean Anonmoly258.3791
Mean Motion15.21391818
Decay Rate-0.00835438
L11 48449U 21040X 21214.91667824 -.00835438 00000-0 -39895-1 0 9997
L22 48449 53.0482 162.8392 0001347 67.2491 258.3791 15.21391818 3678

Live tracking and technical data element details for STARLINK-2655 (NORAD 48449). STARLINK-2655 can be tracked NOW for your location showing map with azimuth and elevation plus other details from your city location.

Track the satellite on the map from your city or location and see movement details for azimuth, elevation, latitude, longitude, range, height, and movement on the map or in text.







IsCatalogInMostPopularTable: catalog: 48449, numindb: 23
Update: records affected: 1



GetName: 48449 STARLINK-2655

Hit Count: updated at: Tue, 03 Aug 2021 20:11:17 GMT